GFSWCAN_sfc_temp_138.txt.gz
Temp
52 54 55 55 56 57 57 57 57 57 56 55 56 54 54 53 53 45 42 43 41 37 38 40 41 39 39 38 35 37 37 36 33 31 30 30 28 30 26 29 28 28 24 23 24 23 24 40 38 36 39 36 39 38
51 51 53 55 55 56 57 57 57 56 56 55 55 54 54 54 53 48 41 44 43 39 39 41 40 40 40 40 40 37 38 36 37 32 30 29 30 28 29 28 29 29 33 30 31 32 39 38 37 38 40 39 38 38
51 51 51 51 54 55 55 56 56 56 56 55 55 55 54 54 53 49 41 41 41 37 37 37 37 40 44 42 43 39 37 40 39 38 34 33 32 33 30 30 29 33 36 34 35 35 38 39 37 38 39 38 39 38
51 51 50 50 51 52 54 55 55 56 56 56 55 55 54 54 53 50 42 41 41 39 33 36 43 37 42 42 42 42 41 41 39 37 35 33 33 36 32 33 32 36 36 35 34 36 35 38 38 39 39 39 39 38
50 51 50 50 50 50 51 54 54 55 55 55 55 54 54 53 52 45 42 42 42 41 36 35 38 39 41 41 40 40 41 39 36 34 32 33 32 33 30 30 29 35 36 35 35 39 38 39 39 39 38 38 38 39
50 50 50 50 50 50 50 50 53 54 54 54 54 54 53 52 50 44 39 42 43 42 36 30 36 36 39 39 39 38 38 37 35 35 33 33 36 34 28 27 36 36 38 40 39 36 38 37 39 39 39 39 39 39
50 50 50 50 50 50 49 49 50 52 53 53 53 53 52 52 47 41 41 43 46 42 37 32 32 35 36 36 35 36 37 35 35 34 32 32 33 34 29 27 38 38 38 36 37 39 37 37 38 40 40 39 42 38
49 49 50 49 49 50 50 49 49 50 52 53 53 53 52 51 48 42 42 47 44 39 37 26 28 32 38 33 31 33 32 33 33 32 32 31 32 30 29 36 37 37 38 37 36 38 40 38 37 37 37 37 36 36
48 49 49 49 49 49 50 50 48 49 49 52 52 51 47 45 42 41 48 46 40 39 29 29 26 28 36 34 34 33 32 27 31 29 30 32 29 28 35 37 37 38 38 37 35 36 36 35 35 35 35 35 33 34
47 48 48 49 49 49 49 49 49 48 49 51 48 44 39 41 48 46 41 36 32 33 34 29 29 28 34 32 32 30 30 27 20 29 30 29 29 36 38 38 38 38 38 36 33 31 31 31 33 33 34 34 34 34
47 48 48 49 49 49 49 49 49 49 48 45 41 37 40 47 41 38 34 33 30 30 31 30 31 29 35 31 31 33 26 27 19 24 27 26 26 32 36 36 36 37 36 35 35 35 35 35 33 34 34 34 34 33
47 47 48 48 49 49 49 49 49 45 45 44 41 41 40 37 34 32 31 29 30 27 28 30 32 31 30 33 31 29 26 29 24 30 28 24 28 33 34 32 33 33 35 35 35 35 35 35 35 34 34 33 33 34
48 47 47 48 49 49 49 49 48 48 46 42 37 32 32 31 28 28 24 28 25 25 29 30 28 29 29 31 28 28 27 26 29 26 23 25 30 31 31 31 31 32 33 34 34 35 35 34 34 33 34 34 34 33
48 47 47 48 49 49 49 48 48 47 42 35 31 28 29 26 28 26 25 29 28 27 30 29 27 28 29 27 27 20 27 27 23 21 20 23 28 30 30 31 32 31 32 30 32 34 33 30 30 31 32 32 32 32
47 47 47 47 47 49 48 48 48 44 39 32 31 28 28 30 26 22 21 26 26 33 31 28 27 28 27 26 27 25 24 22 23 21 24 25 28 30 30 31 32 32 33 33 33 29 25 24 24 29 31 31 31 31
47 46 44 47 48 48 48 47 43 41 34 31 30 30 31 24 28 26 19 25 28 34 29 29 28 23 23 24 25 22 17 15 22 23 25 28 29 30 31 31 32 33 32 32 31 32 32 31 30 30 30 30 30 29
46 39 46 46 46 46 46 40 37 34 33 31 28 33 31 23 25 24 27 29 36 35 27 26 21 24 25 19 20 22 20 25 25 24 25 31 31 31 31 32 32 32 31 30 29 30 30 30 24 18 21 30 29 30
40 41 46 47 44 41 38 36 33 32 29 27 28 28 33 29 26 27 28 34 34 31 29 26 27 24 22 20 19 25 26 23 24 29 31 30 30 31 32 32 32 31 30 25 23 22 18 17 20 26 26 28 25 26
39 39 45 46 42 36 32 32 32 27 26 21 24 23 26 28 28 30 31 37 32 33 32 28 25 21 23 25 25 25 25 25 27 28 28 30 31 31 31 28 26 24 23 21 25 28 28 29 29 30 29 27 28 30
46 46 45 44 41 32 28 29 33 25 22 26 26 27 25 28 29 30 33 35 31 32 30 27 26 27 28 31 31 33 32 31 32 28 28 29 29 25 26 26 27 30 26 27 24 32 26 26 29 28 28 28 26 27
38 37 41 40 34 32 30 28 28 26 26 20 23 30 29 31 31 31 32 33 31 31 29 27 28 32 34 35 34 34 34 35 34 33 35 30 29 28 28 25 23 26 25 27 26 28 31 28 31 31 28 30 30 30
33 36 32 33 29 28 27 29 25 27 25 25 27 28 26 25 26 30 32 30 30 29 29 29 30 33 33 33 34 37 36 33 31 31 34 34 27 24 24 27 23 24 25 27 27 27 29 31 31 29 28 30 32 31
35 33 31 30 26 25 23 29 23 24 21 22 20 17 20 18 24 26 28 28 29 28 30 30 33 34 34 33 33 32 32 32 29 29 30 29 29 27 25 25 26 22 24 29 26 27 28 33 32 32 31 31 29 29
34 28 24 24 24 21 25 22 25 23 24 22 20 13 10 17 23 22 23 23 26 28 29 30 32 30 30 30 29 31 31 28 27 25 28 26 22 27 27 28 27 27 29 27 26 28 29 30 33 30 29 27 27 26
24 22 23 19 23 22 19 18 16 14 12 14 13 15 15 18 14 16 19 19 22 27 31 30 30 30 32 34 30 30 30 28 27 27 25 26 26 25 22 25 26 29 28 20 24 25 26 27 27 26 26 23 25 25
19 20 20 20 20 18 19 15 15 16 15 11 10 13 17 18 18 19 19 22 27 29 29 29 30 30 28 31 30 27 29 27 25 23 25 26 27 25 23 21 19 29 27 28 25 22 24 25 25 25 26 26 30 29
19 19 22 26 23 21 20 21 22 20 17 15 15 15 17 18 17 21 24 25 27 27 30 33 33 32 30 30 30 29 25 26 26 27 25 25 27 28 26 22 22 29 25 24 24 24 24 26 26 26 26 27 26 25
19 21 19 19 20 20 18 17 17 17 18 19 18 16 17 19 21 24 25 25 24 22 25 26 28 30 29 27 25 25 20 17 14 14 16 19 20 21 22 27 29 33 30 25 23 21 22 24 25 26 26 25 26 27
18 22 22 18 18 18 17 16 17 19 23 19 18 18 19 21 22 23 26 23 20 22 25 24 22 14 14 14 14 14 15 17 19 17 15 18 15 21 17 19 19 19 20 21 30 32 27 26 28 29 30 29 28 29
18 20 16 13 15 16 16 16 15 15 20 21 22 20 22 22 23 22 21 18 20 21 19 16 12 16 16 16 16 14 13 17 21 23 18 19 19 17 11 12 14 17 18 19 21 23 30 27 28 26 24 26 27 23
21 22 13 12 11 11 11 12 14 23 14 12 12 16 17 15 21 21 21 22 18 14 15 15 11 6 11 9 9 10 16 16 16 19 19 18 16 16 18 19 20 20 19 19 19 21 25 27 27 27 25 22 20 25
12 6 8 11 10 9 7 5 6 7 9 12 12 7 13 16 15 19 20 14 12 15 22 15 12 18 17 19 16 17 30 18 13 15 14 17 18 19 20 20 20 19 18 19 23 26 27 27 27 27 25 21 20 21
6 4 -1 2 7 6 5 5 4 6 4 2 4 2 2 9 13 18 16 14 19 20 19 18 20 18 17 16 17 16 24 15 15 30 33 33 35 31 29 19 17 18 21 24 27 28 27 25 24 23 21 21 21 20

GFSWCAN_sfc_temp_144.txt.gz
Temp
52 52 51 52 54 55 56 57 57 56 56 56 55 55 54 53 53 45 40 40 39 35 35 37 39 36 36 35 34 36 36 35 32 31 30 28 26 27 23 25 25 27 23 22 23 21 23 37 35 35 38 33 35 34
52 51 50 51 52 55 55 56 56 56 56 56 56 55 54 53 53 48 41 42 41 38 37 37 38 37 38 38 37 34 36 34 36 31 28 28 28 23 25 26 24 26 31 28 29 31 37 37 36 36 37 38 35 36
51 51 50 50 51 52 55 55 55 55 55 55 56 55 54 54 53 49 41 40 39 36 35 36 35 37 41 40 41 37 35 37 36 36 31 30 31 30 27 27 25 29 31 31 32 34 35 38 36 37 37 36 36 36
50 51 50 50 50 50 51 53 54 54 55 56 56 56 54 54 53 49 42 41 40 37 33 34 40 35 39 40 39 40 40 38 37 35 33 31 31 33 31 32 31 34 32 32 31 36 34 38 36 37 37 36 36 36
49 50 50 49 49 49 50 50 52 53 53 54 55 55 54 53 52 45 42 41 42 41 35 34 36 36 38 38 38 37 38 36 34 33 31 32 30 30 28 28 27 32 34 34 35 38 38 37 35 37 36 36 37 36
49 49 49 50 49 48 49 49 50 51 53 53 53 54 53 52 50 45 40 41 42 42 36 31 36 33 36 37 37 35 36 34 34 34 31 31 33 32 27 27 35 33 35 37 38 33 36 34 34 35 37 36 36 36
48 48 49 49 49 48 48 48 49 49 51 52 52 52 52 51 47 43 40 43 45 42 37 31 30 35 36 34 34 34 34 33 34 32 31 30 31 33 29 27 37 35 36 36 35 35 34 34 35 36 37 37 39 35
47 48 48 49 49 49 48 48 48 49 49 50 52 52 52 50 48 44 41 46 44 39 36 26 28 32 38 33 31 32 32 32 32 32 30 30 31 30 29 37 34 35 34 33 34 35 35 35 34 34 34 34 33 33
47 47 47 48 49 49 49 48 48 48 49 49 50 51 47 45 42 42 48 45 40 39 31 27 27 28 35 32 31 31 31 28 31 29 29 31 29 28 36 38 36 35 36 35 33 33 32 33 33 33 33 32 32 32
47 47 47 48 48 48 49 49 48 48 49 49 48 44 39 42 47 46 41 38 36 35 33 28 30 28 33 30 29 28 28 27 21 29 29 30 29 37 39 37 37 37 36 33 32 30 30 29 31 31 32 33 33 33
48 47 47 47 47 48 48 49 49 48 49 44 39 36 40 46 41 39 34 33 33 31 32 31 29 29 33 29 28 30 24 26 19 23 27 27 27 33 36 33 35 36 35 34 34 34 35 34 32 32 32 32 33 33
47 48 47 48 47 48 48 49 49 45 42 42 40 41 40 37 34 32 31 32 31 29 29 30 29 31 30 31 29 29 24 28 20 28 27 24 29 32 32 32 32 33 34 34 35 34 34 34 33 33 32 32 33 33
47 47 48 48 48 48 48 48 48 47 46 41 36 32 31 31 28 29 27 28 29 27 29 29 28 29 28 30 27 26 22 24 27 26 23 25 30 30 30 31 30 30 32 33 32 33 33 32 33 32 32 32 31 31
47 47 47 47 48 48 48 48 48 46 41 34 31 27 27 27 27 27 26 27 28 26 31 27 27 27 28 27 27 20 25 27 23 19 19 24 27 31 29 30 30 29 30 29 30 31 32 30 31 32 32 31 31 31
47 47 47 46 47 47 47 48 48 42 38 32 31 26 28 31 26 26 21 24 28 30 27 28 28 28 26 26 26 26 23 22 24 20 24 26 28 29 28 29 29 29 29 29 28 27 24 24 25 29 29 29 29 29
47 46 41 46 47 47 47 46 42 40 34 32 31 29 30 29 28 28 26 28 30 31 29 31 27 24 23 24 24 23 22 20 23 25 26 28 28 28 28 29 30 30 30 30 30 30 31 29 30 29 27 27 27 27
45 36 45 46 47 46 46 40 35 32 32 30 28 32 26 27 30 28 28 28 31 32 29 29 25 25 26 24 23 24 19 25 28 27 24 28 29 29 29 30 31 30 30 29 29 29 30 29 21 17 21 28 27 28
35 37 45 46 44 41 38 35 32 30 26 29 27 26 31 31 28 28 29 33 33 31 30 28 28 24 22 19 22 24 27 24 24 26 29 29 28 29 32 31 32 31 30 25 23 20 16 16 17 22 23 24 23 23
38 38 44 46 41 35 31 31 32 27 28 30 29 23 25 28 29 31 32 35 34 33 32 29 28 26 23 24 24 24 22 24 30 29 27 28 29 29 30 29 29 27 27 23 24 27 27 27 27 27 27 26 25 26
46 45 45 45 40 32 29 30 33 26 20 23 26 21 22 25 26 27 29 30 32 32 30 28 28 29 28 28 27 27 29 29 28 28 28 28 28 26 28 30 30 29 25 23 20 30 25 25 26 26 26 26 24 26
43 37 44 42 34 32 23 17 28 29 19 17 14 21 21 26 20 24 26 26 31 30 27 28 35 39 34 33 33 34 33 33 33 35 33 29 29 31 29 27 26 26 27 27 27 27 31 27 28 28 27 28 27 27
34 42 33 35 31 31 29 21 20 23 22 25 26 14 23 25 24 22 18 29 31 33 33 36 37 36 36 31 34 32 34 33 34 32 37 36 28 28 28 30 27 26 25 26 27 28 29 29 28 28 26 27 29 27
36 34 30 30 27 26 24 28 22 18 17 17 20 17 15 22 16 25 27 28 32 37 38 38 38 35 35 36 31 31 31 31 30 31 33 33 36 33 30 28 28 26 25 26 24 25 24 32 30 29 28 27 26 26
36 27 24 21 22 17 23 18 19 17 20 16 15 13 8 11 17 24 23 29 33 28 30 33 31 26 26 27 26 28 29 30 27 26 30 31 29 30 32 32 30 29 30 26 24 23 23 27 31 27 26 20 21 21
24 22 23 20 19 19 12 7 9 13 7 8 7 4 7 11 15 14 14 22 19 25 30 27 29 32 34 36 31 27 29 30 30 30 23 27 31 29 26 27 29 30 27 21 20 21 21 20 18 18 18 17 18 18
19 21 18 18 16 11 12 6 9 6 6 6 11 10 11 14 10 13 11 14 21 23 27 28 30 29 29 33 28 26 29 28 28 27 28 29 31 31 29 27 25 30 27 26 22 19 21 21 18 16 17 19 27 24
18 18 18 25 23 21 19 20 20 13 9 9 12 13 15 14 13 16 18 18 20 24 24 27 27 27 27 28 31 31 30 30 30 30 29 29 29 28 29 27 26 28 25 23 23 22 22 21 20 19 19 16 17 18
22 22 18 19 20 20 18 17 17 17 19 21 18 14 16 17 17 19 18 22 18 23 30 31 32 33 32 31 30 28 25 24 23 23 24 24 21 21 20 22 23 32 23 22 22 19 18 19 18 18 17 18 21 20
22 23 23 19 19 19 18 18 19 20 22 19 18 17 16 21 22 20 24 21 18 25 27 28 25 23 22 22 24 24 25 26 26 23 23 20 17 21 12 14 14 14 12 14 27 27 17 16 16 18 19 20 23 23
18 20 17 15 17 17 19 18 19 21 22 23 22 20 21 23 23 21 20 20 21 21 20 21 21 23 23 24 22 22 18 19 21 24 21 19 20 18 11 12 12 9 8 10 11 10 25 18 18 13 14 15 18 22
14 12 12 15 15 14 13 13 12 21 15 15 16 17 20 18 21 21 20 20 18 17 20 18 15 11 19 16 17 19 21 17 14 15 16 15 13 13 12 10 10 9 8 9 9 9 9 10 11 17 22 22 19 24
9 6 7 11 12 12 9 8 6 7 8 10 10 10 14 16 14 16 18 12 12 16 20 15 16 19 16 15 15 15 27 17 13 12 12 13 12 12 11 10 8 8 9 9 8 8 14 19 21 19 20 21 23 22
-3 -5 2 1 8 10 8 6 9 10 6 5 7 4 4 8 13 15 14 10 12 12 12 12 11 13 13 12 12 17 18 13 21 28 30 29 31 26 15 11 11 10 10 10 16 19 18 15 17 16 16 16 18 17

GFSWCAN_sfc_temp_147.txt.gz
Temp
52 52 51 52 52 53 56 56 56 56 56 56 56 55 55 53 52 45 39 39 39 34 34 36 38 36 35 34 33 35 36 35 32 31 30 28 26 26 23 24 25 27 23 23 24 22 24 37 36 36 40 36 36 36
51 52 51 51 51 52 55 55 55 55 56 56 56 55 55 53 53 48 39 41 40 37 37 36 36 36 37 37 36 33 35 34 36 31 29 28 29 23 24 25 23 26 30 28 29 31 37 36 37 37 38 38 36 36
50 51 51 50 51 51 52 55 54 54 55 55 56 56 55 54 53 49 40 39 38 36 36 35 34 36 40 38 39 36 34 36 34 36 31 31 30 30 28 27 26 29 30 30 32 33 35 38 37 37 38 37 38 37
50 50 50 50 50 50 50 51 53 54 54 55 56 56 55 54 53 48 42 40 39 37 34 35 39 34 37 39 38 38 38 37 36 35 33 31 32 33 30 31 30 34 33 33 32 36 35 37 37 37 38 38 37 37
49 50 49 50 49 49 49 49 50 52 53 53 55 55 55 53 52 46 41 40 41 41 35 34 35 35 36 37 37 37 38 36 33 32 31 32 30 30 26 27 26 31 33 33 35 38 39 38 35 36 37 37 37 37
48 49 49 49 49 48 48 48 49 49 51 52 52 54 54 52 50 45 39 40 41 42 37 31 35 32 35 36 37 35 35 34 33 33 32 30 32 32 27 27 35 33 34 37 39 34 36 35 34 34 37 37 36 37
48 48 48 49 49 49 48 48 48 48 49 52 52 52 52 51 47 43 40 43 45 42 37 32 29 34 36 35 33 33 33 32 33 31 30 30 30 32 29 28 38 35 35 35 34 36 34 35 36 35 36 36 39 35
47 47 48 48 49 49 48 48 48 47 48 49 52 52 51 50 48 44 42 47 44 39 36 26 28 32 37 31 31 32 31 31 32 31 31 31 30 30 29 37 32 33 35 35 35 35 36 35 35 34 33 34 33 32
47 47 47 48 48 49 49 48 48 47 47 48 49 52 47 45 42 43 47 46 41 39 30 27 28 29 35 31 31 31 31 28 31 29 29 30 30 28 36 36 34 35 36 37 34 34 33 34 33 32 32 32 31 31
47 47 47 47 47 48 48 49 48 48 48 49 48 45 39 42 47 46 41 38 37 34 31 28 29 27 33 31 29 29 28 27 22 29 30 30 30 38 38 37 37 36 36 33 32 30 31 30 32 31 32 33 33 32
47 47 47 47 48 47 48 48 49 48 48 43 38 35 41 46 42 39 34 34 33 32 32 31 29 28 33 29 29 30 25 27 19 24 26 26 27 31 34 33 35 36 35 35 35 36 35 34 32 31 31 32 32 32
46 47 47 47 47 47 48 48 49 44 42 41 39 41 40 37 34 32 31 32 31 30 30 30 29 32 31 31 29 29 24 28 20 29 27 22 29 32 32 31 30 32 33 33 33 34 33 33 32 32 31 31 32 33
46 47 47 47 48 48 48 48 48 47 45 40 36 32 32 31 28 29 27 28 29 27 30 30 28 30 28 30 27 25 21 22 27 26 22 26 30 31 30 31 30 29 31 32 32 32 32 31 32 31 31 31 30 31
47 47 47 47 47 47 47 48 48 46 41 32 30 27 27 27 26 30 30 25 25 25 30 28 27 28 29 27 27 21 25 27 23 18 20 25 29 30 30 30 30 28 30 29 30 31 31 30 30 30 31 30 30 30
47 47 47 46 47 47 47 47 47 41 38 32 32 25 27 28 26 28 25 27 30 33 28 29 29 30 27 26 26 26 23 22 22 20 25 26 29 29 28 28 29 28 28 28 28 27 26 26 26 28 29 29 30 30
46 45 40 46 47 47 47 45 41 38 34 31 31 28 30 30 28 28 27 28 31 31 28 30 26 26 23 24 24 23 19 18 24 25 26 27 29 27 28 29 29 29 29 29 29 30 29 28 28 29 27 27 27 28
45 36 45 46 46 46 46 39 34 31 30 28 27 32 30 29 30 29 29 30 32 31 29 28 22 25 25 24 23 22 19 26 27 27 25 28 30 29 28 29 30 29 29 28 28 29 29 28 24 19 22 28 26 27
34 37 45 46 43 41 38 35 32 28 25 28 27 26 31 33 28 29 30 32 32 31 30 29 28 23 20 19 21 24 25 26 27 29 31 30 29 28 30 30 30 30 29 24 22 20 18 18 20 23 22 23 21 20
37 36 45 45 40 35 31 31 31 25 27 30 31 23 24 28 29 30 31 33 33 34 33 30 27 27 25 23 25 24 23 24 30 32 30 30 30 29 29 28 27 25 25 22 23 27 27 27 27 27 27 26 25 26
45 45 45 45 39 32 29 29 32 26 22 21 25 23 23 24 24 26 28 29 32 32 30 28 26 29 27 29 28 28 30 30 30 31 33 31 28 25 27 28 29 29 25 23 21 31 26 26 26 26 25 25 24 25
42 34 43 38 33 31 26 26 27 28 23 21 14 17 17 24 23 24 24 27 30 23 23 29 34 38 38 37 34 32 32 32 33 36 37 34 30 29 28 28 28 28 26 27 28 29 32 29 28 28 27 28 27 27
31 41 33 35 31 31 27 27 21 25 25 21 25 24 24 24 17 21 18 26 20 30 29 34 36 37 37 36 36 33 36 33 32 32 37 35 28 27 29 31 29 29 30 30 30 29 30 29 29 28 26 28 30 25
38 35 32 32 27 25 23 27 21 23 17 14 22 21 20 20 19 21 19 22 26 31 35 36 37 37 36 37 32 32 32 32 30 30 31 33 33 30 29 30 33 31 29 30 27 26 25 32 31 31 28 27 26 23
37 30 26 25 23 19 19 18 20 17 11 14 16 8 7 17 16 24 22 27 32 26 31 33 34 33 27 26 28 34 34 30 31 28 29 28 27 28 31 33 33 34 33 27 26 25 24 28 32 28 27 20 18 19
25 22 20 15 14 18 14 7 6 17 9 6 7 7 7 15 17 15 11 22 22 30 32 32 31 33 32 34 35 35 32 30 28 28 28 27 26 28 27 26 30 29 29 25 21 22 20 24 22 19 17 16 17 14
18 20 15 11 10 11 9 3 5 7 5 3 7 6 7 9 6 10 12 14 18 21 24 25 27 27 28 31 31 27 26 26 25 24 24 29 32 31 29 27 28 28 27 26 25 24 25 24 21 17 17 20 28 22
15 11 14 24 22 20 17 18 19 13 10 11 11 12 14 11 6 14 18 17 19 21 23 26 27 27 28 26 26 26 26 27 29 28 28 28 26 27 29 28 25 28 26 25 26 25 24 22 21 20 18 16 16 16
21 20 14 16 19 19 18 18 16 15 16 19 16 12 12 12 14 18 18 21 18 21 27 29 29 30 26 24 27 29 27 26 26 28 30 28 24 24 25 26 28 31 26 25 24 23 22 20 19 17 15 16 18 16
20 23 21 15 16 16 17 17 16 19 22 19 17 18 20 21 20 21 23 21 19 23 27 29 27 26 25 25 24 25 25 26 26 25 24 21 21 22 17 20 20 19 19 21 31 26 18 18 15 15 15 17 19 18
18 19 19 18 18 16 17 19 18 20 22 23 23 21 22 23 23 21 20 18 17 18 20 24 22 22 21 22 23 23 21 21 22 26 24 22 22 19 17 20 20 17 17 18 15 12 25 19 18 15 13 11 13 14
12 10 12 15 15 15 12 12 11 19 18 17 16 17 20 20 21 20 18 17 16 14 19 19 17 15 21 22 22 23 23 19 19 22 23 22 20 19 18 15 13 13 11 10 9 9 8 12 12 14 14 18 22 23
6 3 5 10 11 10 9 6 6 7 6 8 13 12 15 15 16 18 16 15 17 17 20 15 16 16 16 16 17 19 25 17 16 16 18 18 15 13 12 10 7 7 8 8 6 6 6 8 11 12 12 12 12 13
-4 -6 -0 -2 4 8 6 3 6 7 5 5 7 6 3 7 14 15 13 10 11 11 11 11 11 13 14 16 17 18 20 16 25 32 32 31 32 24 11 8 8 8 9 9 8 8 9 10 13 11 10 10 10 11

GFSWCAN_sfc_temp_150.txt.gz
Temp
51 52 52 52 52 53 53 54 56 56 56 56 56 55 55 54 52 51 47 46 49 47 47 46 47 46 44 46 46 43 43 42 42 40 40 40 38 40 37 39 38 39 38 37 37 35 34 47 45 45 50 49 48 47
50 51 52 51 51 52 52 53 55 55 56 56 56 56 55 54 53 50 47 46 47 47 46 44 45 46 46 47 47 42 44 44 47 44 41 40 38 36 37 40 37 36 43 44 43 46 47 49 49 50 50 50 49 49
50 50 51 51 51 51 51 51 55 54 54 55 56 56 55 54 54 52 48 45 46 45 45 44 44 45 46 46 47 47 44 45 44 46 44 42 39 42 39 39 39 40 42 42 41 48 47 50 51 50 50 50 49 49
49 50 50 50 50 50 50 50 51 54 53 54 56 56 55 54 53 50 49 47 47 45 43 43 45 43 45 46 46 46 46 44 45 45 44 43 41 43 42 40 40 43 40 43 43 48 48 49 49 50 49 48 47 46
48 49 50 49 50 50 49 49 50 51 53 53 54 55 55 54 53 49 48 47 48 47 42 42 42 43 43 45 44 45 45 44 45 42 41 42 42 41 39 38 39 42 44 44 48 51 52 50 48 47 47 46 47 46
48 48 49 49 49 49 49 48 48 49 49 53 52 53 54 53 50 48 45 45 47 48 44 39 41 40 41 43 43 42 43 43 44 44 43 42 39 40 38 39 49 46 47 50 52 48 48 48 46 45 46 46 46 47
48 48 48 48 49 49 49 49 48 48 48 50 52 52 53 51 48 46 45 47 47 47 43 39 36 39 41 41 40 41 41 41 43 42 40 41 40 40 38 37 50 48 48 47 47 48 47 45 47 45 46 45 45 44
47 47 47 48 48 49 49 49 49 48 48 49 50 52 51 50 47 45 46 48 47 44 42 35 34 35 40 37 37 38 39 40 39 40 38 39 38 37 34 44 43 44 44 44 45 45 45 44 43 41 41 42 41 41
47 47 47 47 48 48 48 49 49 49 48 49 49 51 48 46 43 43 48 47 45 45 37 35 34 33 39 36 37 37 38 35 36 36 36 36 35 32 42 46 44 45 44 45 40 41 40 41 40 39 40 40 40 39
46 47 47 47 47 48 48 48 49 49 48 48 47 45 40 43 47 47 41 38 38 41 37 35 36 33 37 35 34 35 35 35 31 35 35 31 33 42 44 45 46 45 44 41 38 36 37 37 39 39 40 41 42 41
47 46 47 47 47 47 48 48 49 49 48 41 36 35 42 46 42 40 34 34 34 33 35 36 36 32 37 34 34 36 32 32 29 31 31 31 31 39 41 40 42 45 44 43 44 44 44 44 41 39 39 40 41 41
47 46 47 47 47 48 48 48 48 45 43 41 38 41 40 37 34 32 32 33 32 33 33 32 33 36 34 37 35 32 31 30 28 32 29 28 36 40 39 39 38 40 41 41 42 41 41 41 41 40 40 39 40 41
46 46 47 47 47 48 48 48 48 46 45 41 36 32 32 31 29 30 28 30 31 32 32 31 31 33 32 35 32 32 28 28 32 27 27 33 39 38 38 37 36 37 38 39 39 39 39 38 38 39 37 38 39 39
46 46 47 47 47 47 47 47 47 44 41 34 32 29 29 28 30 32 33 34 31 32 33 33 31 33 33 32 31 29 29 31 25 22 27 37 38 39 38 37 36 35 36 34 36 37 36 35 36 37 39 39 39 38
47 47 47 46 47 47 47 47 47 43 37 32 32 26 29 31 31 30 29 31 31 35 34 32 32 34 30 29 30 28 24 23 27 27 33 36 36 37 37 36 37 36 36 36 35 33 32 33 34 35 36 38 39 38
46 45 42 46 46 46 47 45 41 40 34 32 32 29 32 31 31 31 30 30 33 34 34 34 31 29 29 30 26 25 24 24 31 32 35 35 36 35 36 36 36 37 37 37 37 38 37 35 36 37 35 35 36 36
45 37 44 46 46 46 46 41 37 31 29 29 28 32 31 31 31 31 32 32 34 32 31 31 28 30 29 26 25 27 26 32 33 35 34 35 35 37 36 35 35 34 35 36 37 37 36 36 33 31 33 34 34 33
37 39 45 46 43 41 38 35 33 29 25 28 27 29 32 34 31 32 33 34 34 32 32 30 30 27 25 23 24 30 32 33 33 34 35 36 37 36 35 36 35 34 35 32 31 31 28 27 30 34 33 32 30 30
37 38 46 46 40 35 32 32 32 26 28 31 31 28 29 31 33 34 34 35 35 35 33 32 29 28 29 30 32 33 32 32 37 38 37 37 35 35 34 32 31 31 31 30 30 34 34 34 37 36 36 33 34 36
44 45 45 44 40 29 27 26 32 26 23 27 27 25 26 27 26 29 31 32 34 33 31 29 29 33 33 36 34 35 36 37 38 39 40 41 36 32 31 32 33 33 33 31 30 34 33 33 33 34 33 34 33 34
43 38 43 38 34 31 29 25 28 27 25 24 26 26 24 27 26 26 26 32 31 31 27 31 35 39 39 40 40 37 37 37 37 39 40 39 40 35 34 32 32 33 33 33 33 34 35 35 36 34 33 34 34 34
34 40 33 35 31 31 28 25 25 29 26 26 25 26 24 24 23 23 27 26 26 29 31 35 37 38 38 38 38 36 39 37 36 36 38 38 35 32 31 32 30 31 32 33 35 36 36 37 36 34 33 34 35 33
38 35 32 32 27 26 21 28 24 21 19 21 24 21 21 22 24 24 23 25 27 30 36 37 37 37 36 38 36 34 35 35 36 35 36 37 37 36 33 33 34 33 32 34 36 35 34 36 36 34 33 33 32 31
38 29 24 25 22 16 19 16 22 20 20 21 20 16 16 19 21 23 21 23 33 32 32 33 35 34 35 31 32 35 36 34 35 35 36 35 34 34 35 35 35 36 36 37 34 33 32 33 35 33 31 30 30 29
26 25 25 20 20 13 7 8 15 18 17 11 17 15 13 18 18 19 18 24 29 30 31 31 31 33 32 35 36 37 36 34 33 32 35 33 34 32 30 31 34 35 34 32 31 31 30 29 29 30 29 28 27 27
17 16 17 11 12 14 11 7 10 12 11 10 12 12 12 15 13 14 17 21 25 26 28 28 28 28 28 31 32 33 33 32 32 31 35 31 31 31 30 28 28 30 32 35 32 30 29 28 28 26 27 27 31 30
18 16 18 25 22 20 17 18 18 15 12 13 14 12 15 13 8 16 23 23 24 26 27 27 28 28 28 29 31 31 29 28 29 31 31 30 31 32 32 31 28 33 32 31 31 31 30 28 28 28 28 27 26 25
20 20 17 19 21 21 19 18 16 14 17 20 17 12 13 11 16 25 24 23 23 25 25 27 30 29 30 30 30 29 28 28 28 27 28 27 25 26 28 30 30 32 29 29 29 29 30 30 29 27 26 26 26 25
18 21 22 17 18 18 18 17 17 20 23 20 17 18 19 23 24 24 26 24 24 23 27 30 29 27 27 27 27 28 28 29 31 30 31 28 28 26 22 25 26 27 29 30 32 29 26 26 25 25 24 23 24 22
17 18 18 16 14 15 19 21 19 21 23 24 24 22 23 24 25 23 22 21 21 21 21 24 26 20 23 25 24 24 24 24 25 29 28 28 26 23 23 24 24 24 25 26 25 23 29 22 23 20 20 19 20 20
11 8 10 16 17 20 18 15 13 19 18 19 20 19 21 22 24 22 20 18 18 19 21 22 21 20 22 23 23 24 25 24 23 25 27 25 23 23 22 22 21 21 21 21 19 19 19 20 20 19 18 16 16 19
4 8 4 9 9 9 11 10 11 11 10 12 17 16 18 19 19 20 17 16 17 16 18 17 19 19 19 19 20 23 27 21 20 22 21 22 21 20 19 18 16 18 19 18 17 17 16 16 16 18 18 15 14 14
-5 -7 -0 -3 2 4 2 2 4 6 9 12 13 11 11 13 16 17 17 14 13 13 13 14 15 16 15 16 16 19 21 19 26 33 33 33 32 26 20 18 18 18 17 18 16 15 14 14 15 12 12 11 11 12

GFSWCAN_sfc_temp_153.txt.gz
Temp
51 51 52 52 52 52 53 53 53 55 56 56 56 55 55 54 53 54 53 52 52 52 54 51 53 51 50 51 50 47 46 45 45 41 42 45 41 45 41 45 43 42 40 39 42 38 35 51 48 47 51 52 52 52
51 50 51 51 51 52 52 52 52 54 56 56 56 55 55 54 53 53 52 52 53 49 50 49 51 51 50 50 52 49 48 49 52 47 46 46 41 42 43 43 44 39 47 46 46 48 52 54 53 54 55 54 52 53
50 50 50 51 51 51 51 52 52 53 55 55 56 56 55 54 53 53 53 51 50 50 52 48 48 50 51 51 52 50 50 50 49 50 49 47 41 46 41 43 44 47 49 45 44 54 52 54 56 56 55 54 53 53
49 49 50 50 50 50 50 51 51 51 54 55 56 56 55 54 54 52 51 52 52 51 46 46 50 47 50 51 50 51 50 49 50 50 48 46 43 47 46 43 43 47 45 47 48 53 54 54 55 57 55 54 52 51
48 49 49 50 49 50 50 50 49 49 51 54 54 54 55 54 53 52 51 52 55 50 45 47 47 46 48 49 48 49 50 49 49 45 44 44 47 44 46 42 42 47 48 45 51 56 56 52 52 52 52 51 52 50
48 48 48 49 49 49 49 50 49 48 49 51 52 52 53 53 51 50 45 49 52 53 46 42 45 44 46 47 47 47 49 49 50 48 47 48 44 43 41 43 55 53 55 57 54 53 52 52 51 51 52 51 51 51
47 47 48 48 48 49 49 49 49 49 48 49 52 52 52 51 49 46 47 49 50 52 45 41 40 42 45 45 45 45 46 47 48 47 43 46 44 42 42 40 55 55 55 54 53 52 49 49 51 49 50 50 49 50
46 47 47 48 48 48 49 49 49 49 49 48 49 52 52 50 47 44 47 49 50 48 46 37 36 38 44 41 40 44 43 44 43 44 42 42 42 41 36 48 53 51 50 51 51 51 48 49 48 46 47 46 45 44
46 46 47 47 47 48 48 48 49 49 49 48 48 51 48 46 43 43 47 47 48 46 40 38 35 34 41 40 42 41 43 37 40 39 40 39 40 34 44 49 52 53 48 50 48 46 45 45 44 43 43 44 43 41
47 46 47 47 47 47 48 48 49 49 49 47 46 45 40 43 47 47 42 39 38 41 41 37 41 34 40 39 38 39 39 38 32 38 39 34 37 46 48 50 50 49 49 45 39 37 39 40 41 42 43 45 45 44
47 47 46 47 47 47 48 48 48 48 48 41 37 35 42 47 43 41 34 33 34 33 36 40 40 34 39 35 36 40 35 37 31 34 34 35 34 43 47 45 46 50 50 48 49 48 46 46 44 43 43 44 44 44
46 47 46 47 47 47 48 48 48 45 43 41 39 41 41 38 34 32 32 33 32 34 35 34 36 39 35 38 36 35 33 32 30 35 31 31 39 45 43 42 41 44 48 46 48 46 47 46 46 45 44 43 43 43
47 46 46 47 47 47 47 47 47 46 45 42 36 32 32 32 30 31 28 31 32 35 33 33 32 35 33 36 34 34 30 31 36 30 31 35 41 42 42 41 39 40 42 42 41 42 43 41 42 42 40 41 42 41
47 46 47 47 47 47 47 47 46 43 42 36 32 30 30 29 31 33 34 36 33 36 35 37 33 33 33 32 32 30 32 33 27 26 29 40 38 40 43 41 39 39 39 36 37 38 37 35 37 38 40 42 43 41
46 46 46 46 47 46 47 47 46 44 37 32 32 27 30 32 33 32 32 32 33 39 36 34 34 36 31 30 32 30 25 26 29 31 37 38 38 38 40 39 41 40 40 40 39 35 34 34 34 36 38 41 42 40
46 45 45 46 46 46 46 45 45 43 34 32 32 30 33 32 32 33 32 33 35 37 36 35 32 31 31 31 28 28 28 28 33 35 38 38 38 39 39 38 39 40 40 40 40 39 37 36 37 38 39 38 38 38
45 42 45 46 46 46 45 42 38 31 31 30 30 34 33 33 31 33 33 33 34 33 32 33 29 30 30 29 28 33 31 35 36 37 38 39 37 38 39 38 37 36 38 39 39 38 38 38 35 33 34 37 36 36
41 43 45 46 45 43 40 36 33 30 26 30 29 32 34 35 34 34 34 35 34 33 33 30 32 28 29 26 29 33 34 36 36 38 39 39 41 40 38 39 37 36 36 33 32 32 30 30 32 34 34 33 32 32
42 43 46 45 43 37 32 31 33 27 29 32 33 33 33 33 35 36 37 37 37 37 34 32 30 30 32 34 35 34 34 35 37 40 42 42 41 39 36 33 33 33 33 32 33 35 36 36 38 38 37 35 35 36
45 45 45 44 43 32 28 29 33 30 26 30 30 27 28 31 30 33 35 35 35 33 31 29 32 37 37 39 38 39 39 40 39 39 41 43 42 36 35 35 36 36 35 34 33 37 35 35 35 36 36 35 34 35
41 40 42 40 34 33 31 29 29 30 29 27 28 27 27 29 29 29 30 33 30 30 29 34 37 40 41 42 44 41 40 39 40 41 40 39 42 39 37 36 34 36 35 35 35 35 37 36 37 36 35 35 36 36
35 39 34 36 32 30 30 31 30 32 28 29 26 27 25 26 28 27 30 27 29 33 36 38 39 39 39 39 41 41 41 41 40 39 41 40 38 37 36 35 33 33 33 35 36 37 37 38 37 36 35 35 37 34
37 35 32 32 27 27 26 31 27 27 23 24 26 23 23 23 27 27 23 27 30 35 38 38 39 39 38 39 38 37 38 37 37 38 38 39 40 39 37 35 35 33 33 34 36 36 36 38 37 36 35 35 33 32
39 31 26 26 26 21 25 24 27 25 24 23 21 19 21 23 25 22 21 27 35 35 34 34 36 36 37 35 34 36 37 37 36 37 39 38 36 37 39 38 39 37 36 38 35 35 35 35 37 35 33 32 32 31
23 21 26 19 25 20 18 19 19 21 19 20 19 19 20 21 19 21 21 29 33 34 34 33 34 33 33 34 36 37 38 37 35 33 37 37 36 36 35 35 37 39 36 34 33 33 33 34 33 33 32 32 31 29
19 23 21 23 20 19 18 15 16 17 21 16 18 18 18 19 17 17 24 28 30 30 30 29 28 29 30 33 31 32 35 36 35 33 36 35 34 34 33 33 32 32 34 35 33 32 32 32 32 30 29 29 33 29
20 19 23 28 26 23 20 22 22 19 15 14 19 16 18 16 15 23 29 29 28 30 29 28 28 27 29 31 33 33 33 33 32 32 32 31 31 32 33 32 30 33 32 32 33 33 32 30 29 29 30 28 27 27
23 23 20 23 23 24 21 20 18 16 20 23 21 15 16 16 20 28 28 29 27 27 26 28 31 30 29 30 31 31 31 29 28 28 29 30 29 28 29 31 32 34 32 32 31 32 32 31 30 28 27 27 26 26
22 23 24 19 21 21 21 21 21 24 26 23 20 20 21 26 27 26 27 25 26 25 28 28 31 29 31 29 30 29 29 31 32 30 28 28 29 27 26 29 30 31 31 31 34 31 29 29 28 26 24 24 24 22
18 19 20 19 17 18 22 24 23 24 25 25 25 24 25 26 26 24 24 23 21 21 23 24 26 26 28 29 28 27 27 26 27 31 30 29 26 25 27 27 27 27 28 28 26 26 30 25 25 21 21 20 20 20
16 16 15 18 20 22 19 18 18 21 21 21 23 22 23 24 25 22 20 19 21 22 23 23 24 22 23 25 26 26 25 26 25 27 27 26 26 25 24 24 24 24 24 23 22 21 20 20 20 17 18 15 14 18
14 13 12 10 15 15 15 14 16 16 17 17 20 20 21 21 21 21 18 17 19 18 20 20 20 19 21 22 23 25 27 24 25 24 24 24 23 22 22 21 20 22 21 20 19 18 16 15 16 16 17 15 13 13
8 6 7 8 11 12 12 9 11 12 14 16 16 15 15 16 18 19 21 18 16 15 15 17 18 18 17 17 18 21 24 24 30 34 33 32 31 27 22 20 20 19 18 18 17 15 13 12 14 13 12 11 11 11

GFSWCAN_sfc_temp_156.txt.gz
Temp
50 51 51 51 52 52 52 52 52 52 53 56 56 55 55 54 54 51 48 50 47 44 46 47 49 44 45 44 41 41 40 40 38 35 35 36 33 36 32 35 33 33 30 29 31 28 25 42 40 37 42 42 44 43
50 51 51 50 51 52 52 52 52 52 52 55 56 55 55 54 53 53 48 50 50 43 44 47 47 47 45 45 43 43 41 43 44 38 37 37 34 37 36 32 36 30 38 35 38 36 44 44 42 43 46 45 42 42
49 49 50 51 50 51 51 51 51 51 52 55 55 55 55 54 54 52 49 47 45 43 44 42 42 45 49 47 47 41 43 45 44 42 39 39 34 38 34 37 36 38 40 35 37 41 42 45 46 47 44 44 45 45
48 49 49 50 50 50 51 51 50 51 51 54 55 55 55 54 54 52 48 48 46 44 38 39 48 43 45 47 46 46 45 45 44 42 39 38 36 41 37 38 37 42 40 38 39 44 41 44 44 47 46 46 45 44
47 48 49 49 50 50 50 50 50 50 50 51 54 54 54 54 53 51 49 50 50 44 38 40 43 42 45 45 44 43 45 43 40 37 35 35 38 37 38 35 33 40 40 39 40 45 44 41 41 45 45 44 45 43
48 48 48 48 49 49 49 50 50 49 49 50 53 53 54 53 52 48 42 48 50 48 40 35 40 39 41 42 42 41 43 42 40 39 37 38 39 36 31 33 45 44 46 48 46 46 46 46 45 43 44 44 45 44
47 47 48 48 48 49 49 49 50 50 49 49 52 52 52 52 49 44 44 45 51 49 41 35 33 38 41 40 40 39 40 39 38 38 35 37 36 36 33 32 45 46 47 45 45 45 41 43 41 43 44 44 46 43
47 46 47 47 48 48 48 49 49 49 49 49 49 51 52 51 48 44 45 49 49 45 41 33 31 33 40 36 34 39 36 37 37 35 35 35 34 33 30 41 43 43 42 44 44 42 41 42 41 41 41 40 39 38
46 47 46 47 47 48 48 48 49 49 49 49 48 50 48 46 43 42 47 48 46 44 34 33 30 29 38 36 36 35 36 30 34 32 33 34 32 29 38 40 44 45 43 42 42 40 40 39 38 38 39 39 37 37
46 47 47 47 47 47 47 48 48 49 49 47 46 43 39 43 47 47 43 39 38 39 38 35 35 29 36 34 33 32 33 31 24 31 32 29 31 42 44 44 44 44 42 41 35 33 35 36 37 38 38 40 39 38
46 47 47 46 47 47 47 48 48 48 48 41 36 34 41 47 43 40 33 33 33 32 36 36 34 30 37 32 31 34 30 30 22 27 27 29 31 37 41 40 39 42 42 42 42 42 41 40 39 38 38 39 39 38
46 46 47 46 47 47 47 48 48 44 41 40 38 41 40 38 33 32 31 32 32 32 34 33 33 34 33 36 33 32 30 28 22 29 25 26 34 37 39 36 36 38 39 41 42 41 42 41 40 39 38 38 37 37
46 46 46 47 47 47 47 47 47 46 44 41 36 32 32 31 29 30 27 30 30 33 32 32 30 32 32 34 32 31 28 28 30 26 23 31 34 36 37 37 35 35 38 39 38 39 40 39 39 38 36 36 36 35
46 46 46 47 47 46 47 47 46 44 40 34 32 28 29 28 30 30 30 32 31 33 33 35 31 32 32 31 31 29 30 29 22 18 24 31 33 34 35 36 35 33 34 32 33 35 35 33 35 35 36 37 37 35
46 46 46 46 46 46 46 46 46 43 37 32 31 27 29 31 32 31 31 32 32 36 34 32 32 32 30 29 31 28 25 23 23 23 28 31 34 34 34 35 35 33 34 34 33 30 28 29 30 32 34 35 35 33
46 45 43 46 46 46 46 45 42 40 34 32 31 28 31 30 31 32 32 31 33 35 34 33 31 30 28 30 26 26 23 20 24 26 28 32 33 33 33 34 35 36 35 35 35 34 33 32 32 32 33 33 32 32
45 39 45 46 46 45 45 38 35 30 30 27 28 33 31 32 31 31 32 31 34 32 31 32 28 29 29 26 25 27 24 27 28 28 28 32 31 33 33 34 34 34 35 35 34 33 32 33 30 26 29 31 31 32
38 41 45 46 44 42 36 35 32 30 25 26 28 26 31 32 31 32 32 34 33 32 32 28 30 27 27 26 24 26 27 28 29 30 32 33 33 33 33 32 33 33 33 27 27 24 24 26 27 29 27 28 26 26
41 42 45 46 42 34 26 31 31 22 21 25 27 27 27 29 30 32 35 36 35 34 32 31 28 27 28 29 28 27 27 28 30 32 34 35 34 33 31 28 27 27 27 24 28 30 30 30 31 31 30 29 29 29
45 45 45 44 42 28 27 28 32 24 17 23 26 26 26 24 24 26 28 33 33 32 29 26 23 30 32 33 33 33 33 33 32 30 31 34 34 29 30 29 29 32 29 29 27 35 30 29 30 31 30 29 29 29
40 39 41 37 32 31 24 28 28 29 28 24 26 26 24 24 21 19 19 32 30 28 21 27 32 35 36 35 36 36 35 33 32 32 33 31 34 34 31 27 27 30 30 31 30 30 33 30 31 31 31 31 30 31
35 40 33 35 24 27 22 26 28 30 25 24 25 26 23 18 15 20 26 26 19 23 27 30 32 33 33 33 34 34 35 34 33 33 38 36 30 28 28 29 27 28 30 31 31 31 30 31 32 31 31 31 34 31
37 35 29 26 25 21 15 30 24 25 16 16 24 17 21 22 25 26 22 26 23 26 30 30 31 33 32 33 33 32 33 32 30 30 31 32 32 32 31 32 32 31 30 31 31 28 29 34 35 32 31 33 31 30
39 30 23 16 14 14 25 22 20 23 23 22 20 9 14 19 25 21 20 18 26 26 26 27 26 27 28 29 25 29 31 29 28 26 30 29 28 30 31 31 32 31 31 30 27 27 26 30 34 31 32 31 29 28
24 21 18 13 25 14 10 12 12 15 8 14 19 8 11 18 18 18 11 15 20 23 24 23 23 25 24 26 27 28 31 27 26 26 27 27 27 28 25 27 30 30 28 23 23 24 22 23 23 23 27 28 28 26
9 14 17 15 13 12 12 6 8 9 13 6 8 8 9 15 6 6 12 16 20 21 21 22 24 24 24 25 27 28 27 27 24 23 24 25 26 25 21 22 21 26 26 26 24 21 21 21 21 23 28 30 34 25
14 18 20 26 24 21 17 19 19 13 5 7 9 6 9 6 3 13 19 19 19 21 23 26 25 25 25 26 30 32 30 26 24 23 24 23 23 22 23 22 21 26 25 24 24 25 23 23 24 28 26 21 20 20
22 23 18 21 22 23 19 16 13 11 13 19 17 7 6 8 11 18 20 24 20 22 21 25 27 26 27 26 29 29 28 26 25 26 27 23 19 20 21 25 29 34 27 26 26 26 24 24 23 22 21 22 22 21
22 22 23 19 20 20 19 17 16 20 24 19 15 15 16 19 20 20 20 19 21 20 21 24 25 27 29 28 27 25 23 25 24 20 20 19 19 22 23 23 24 24 24 29 35 30 27 26 26 24 20 17 15 13
16 15 16 15 15 16 19 21 20 21 24 24 24 21 21 20 22 21 20 20 18 17 20 21 22 22 24 25 24 23 24 23 23 25 24 20 19 18 19 21 21 20 21 22 21 19 29 20 19 13 12 10 10 10
12 9 8 10 11 15 15 16 17 21 19 20 21 18 19 21 22 21 19 18 19 20 20 19 20 19 19 18 18 19 21 22 21 23 23 22 19 17 16 15 15 15 14 13 11 10 9 9 8 6 6 4 5 9
8 4 3 5 5 6 7 7 10 12 16 16 19 19 20 20 16 16 17 16 15 15 19 17 16 17 18 19 19 21 25 17 20 19 16 17 15 12 12 11 11 10 10 9 8 7 6 5 5 5 5 4 3 3
-1 -2 -3 -1 1 3 3 2 4 5 9 12 14 14 15 15 14 15 17 17 15 14 13 14 16 16 15 14 14 17 21 21 31 33 32 31 31 24 13 10 10 11 10 9 7 6 5 3 3 2 2 4 5 5

GFSWCAN_sfc_temp_159.txt.gz
Temp
50 51 51 51 51 52 52 52 52 51 52 54 55 55 55 55 54 50 44 46 43 39 42 44 46 41 42 40 36 38 38 37 35 32 32 33 32 35 30 33 30 30 26 26 28 25 24 40 38 35 42 43 43 42
50 50 51 51 51 51 52 52 52 51 51 52 54 55 55 54 54 53 43 46 46 41 42 45 45 44 43 43 41 38 39 38 39 34 33 34 33 34 34 31 34 30 35 32 33 34 42 41 40 40 44 44 42 41
49 49 50 50 50 51 51 52 51 51 51 52 53 55 55 55 54 51 44 43 43 40 42 40 41 42 46 44 45 39 38 42 40 40 36 36 33 36 31 33 36 36 37 35 36 37 40 42 41 43 42 41 42 43
48 49 49 49 50 50 50 51 51 51 51 51 51 55 55 55 54 52 45 45 44 43 37 39 45 40 43 44 44 44 42 42 41 38 36 34 33 40 36 37 35 41 40 37 35 40 38 42 42 44 43 43 43 43
48 48 49 49 49 49 50 50 51 51 50 50 50 54 54 54 53 51 47 47 47 44 37 38 41 40 42 42 41 42 42 39 36 35 32 33 34 35 36 34 32 38 40 39 38 43 41 40 39 43 42 41 42 42
48 47 48 48 48 49 49 49 50 50 50 50 50 52 53 53 52 48 42 47 48 47 39 33 38 37 39 40 40 39 40 38 36 36 33 35 36 35 30 31 42 41 42 45 45 44 43 42 41 40 42 41 41 42
47 46 47 47 48 48 48 49 49 49 50 50 50 51 53 52 49 44 43 45 51 49 39 33 31 37 39 38 37 37 38 36 36 35 33 34 34 35 31 30 43 44 44 43 43 44 40 42 42 41 42 42 44 41
47 47 47 47 47 48 48 48 49 49 49 50 49 51 52 51 48 44 44 49 49 45 41 33 32 31 39 34 32 36 33 34 34 33 33 32 33 31 29 39 40 42 41 42 41 39 41 40 39 38 38 39 38 37
46 46 46 46 47 47 47 48 48 49 49 49 48 51 48 46 42 41 48 48 46 43 34 33 29 27 36 34 34 33 33 28 32 30 30 32 30 28 37 38 40 42 42 41 40 39 38 37 37 36 37 36 36 36
45 46 47 47 46 47 47 48 48 48 49 47 45 42 38 43 47 47 43 39 38 39 36 32 32 29 35 33 31 29 30 29 22 30 31 28 29 40 40 40 41 42 42 39 36 34 34 34 36 37 38 39 40 39
46 46 46 47 46 47 47 48 48 48 47 40 36 34 41 47 43 39 32 32 33 32 35 36 31 29 36 31 31 33 26 28 20 27 27 26 29 35 37 37 37 37 40 41 41 42 41 41 39 38 38 38 37 37
46 46 46 47 46 47 47 47 47 43 40 39 38 41 40 37 32 31 30 32 32 30 34 33 33 33 32 35 32 31 28 27 20 28 25 23 31 34 35 36 36 36 38 40 41 41 40 40 40 39 38 37 37 36
46 46 46 46 46 47 47 47 46 45 44 40 35 32 32 31 29 29 26 29 30 32 32 32 30 32 32 34 31 31 29 28 28 26 23 27 33 34 34 36 36 35 37 38 38 38 39 38 38 37 36 36 36 35
46 46 46 47 46 46 46 47 47 44 39 33 31 27 28 26 29 28 30 32 31 33 33 33 31 32 32 31 31 29 30 28 21 21 21 28 33 34 35 35 35 35 35 33 34 35 35 33 35 35 36 36 36 35
46 46 46 46 46 46 46 46 46 41 36 31 30 26 27 30 30 28 28 31 32 36 33 32 32 32 30 29 29 27 22 17 20 20 27 31 33 33 34 34 35 34 34 34 33 31 29 29 30 33 33 34 34 33
46 45 41 46 46 46 46 42 39 38 33 29 29 28 30 29 30 31 31 30 33 34 34 34 30 28 26 28 23 22 22 18 22 25 30 32 32 32 33 33 35 35 35 35 35 34 33 32 32 33 33 33 33 32
45 35 45 46 46 45 43 35 32 28 24 23 24 31 31 31 30 30 31 31 34 33 31 31 26 25 29 24 23 26 23 25 27 27 29 32 32 32 33 33 33 34 35 34 33 33 32 32 29 26 29 31 31 31
34 37 45 46 42 39 33 32 31 25 18 19 26 24 29 31 31 31 31 34 33 32 30 23 28 23 24 22 24 25 26 26 27 28 31 33 34 33 33 32 33 33 33 27 26 24 23 24 27 29 28 28 26 26
38 38 46 46 39 30 20 27 30 14 14 20 24 25 26 28 29 31 34 35 33 33 32 30 26 23 26 26 26 26 26 26 30 32 33 34 34 33 32 29 28 28 27 26 29 31 31 31 31 31 30 29 29 29
45 45 45 44 39 22 26 27 31 19 12 24 28 26 26 25 25 23 28 32 32 29 28 22 26 30 31 33 33 32 32 32 31 30 31 33 33 29 30 29 30 31 30 30 27 34 30 29 30 30 29 29 29 30
38 37 40 35 30 24 19 27 26 27 26 21 25 25 24 26 16 16 21 31 22 15 19 27 30 32 33 33 33 33 32 31 30 31 31 30 32 33 32 28 27 31 31 31 30 31 33 30 31 30 30 31 30 31
35 39 31 31 18 17 19 29 26 28 26 24 25 25 19 10 23 19 27 24 14 20 24 28 29 30 30 30 32 32 33 32 31 30 36 34 29 26 27 30 27 28 28 29 30 30 30 31 31 30 30 31 33 30
38 32 29 20 16 13 18 28 22 23 17 17 24 16 6 20 23 25 20 25 20 23 27 28 29 30 30 31 30 30 30 29 28 28 29 29 30 30 28 28 29 27 28 29 28 27 27 33 32 32 30 31 29 30
37 26 19 11 7 12 23 22 17 23 22 21 16 5 12 21 24 20 16 14 22 24 24 24 23 24 25 26 22 26 28 24 25 24 27 26 22 27 28 29 29 28 29 29 25 26 25 28 33 29 29 24 24 29
23 21 15 14 19 7 5 7 7 15 3 16 18 4 13 17 16 17 13 11 15 20 21 22 21 22 21 23 24 25 28 25 22 22 24 23 25 26 24 24 27 29 27 21 22 22 22 20 21 20 20 20 21 27
10 15 17 7 5 9 7 6 6 6 11 5 10 5 7 16 4 3 8 11 17 18 19 21 24 22 24 27 25 25 28 24 22 22 23 23 22 21 18 19 19 25 24 23 23 20 19 19 19 18 20 23 33 26
7 10 16 25 23 21 17 17 16 8 2 4 4 6 5 0 -1 10 16 15 19 21 21 23 23 23 24 25 26 28 30 29 28 28 22 21 20 20 22 20 20 25 23 21 21 21 20 19 20 21 22 22 21 20
16 19 16 19 21 20 14 12 9 5 6 14 13 4 3 6 10 15 17 20 15 15 15 18 25 25 24 24 24 25 26 26 26 26 20 19 19 22 23 25 26 33 24 23 21 20 21 19 17 17 18 18 18 17
21 21 22 18 20 19 18 16 14 16 21 17 13 11 14 17 15 18 18 16 14 11 16 20 21 23 25 24 24 24 25 25 23 21 20 17 19 20 20 19 21 22 22 27 34 29 23 20 18 18 16 16 14 11
15 16 17 17 16 15 17 19 16 18 22 22 23 20 20 20 20 20 15 12 16 16 17 18 18 15 19 22 23 24 24 23 23 24 23 19 17 16 14 15 15 14 13 16 15 13 28 16 17 10 9 8 7 6
10 6 6 7 9 12 13 15 16 21 19 18 18 17 18 19 18 18 16 16 17 18 19 16 18 18 18 19 19 20 21 22 22 22 21 18 13 13 12 11 9 11 12 12 11 8 7 6 4 3 4 3 5 8
4 3 1 5 3 2 2 0 3 7 12 14 13 12 16 18 15 16 17 15 14 14 18 15 15 17 18 21 23 24 25 19 22 20 17 18 14 10 10 9 8 8 7 6 5 4 3 2 3 2 3 0 2 2
-7 -8 -9 -5 -2 -0 -1 -2 -2 -2 3 9 13 13 13 14 12 15 17 16 15 14 14 15 17 17 16 15 16 18 21 21 30 32 31 31 30 23 11 7 7 7 6 5 4 3 3 1 1 -0 -0 -0 2 3